Weather History for North Padre Island, TX

Change the Weather History Date:

Thursday, March 14, 2013

  Actual Average Record
Temperature  
Mean Temperature 67 °F -  
Max Temperature 68 °F - - ()
Min Temperature 66 °F - - ()
Cooling Degree Days 2    
Growing Degree Days 17 (Base 50)    
Moisture  
Dew Point 58 °F    
Average Humidity 74    
Maximum Humidity 83    
Minimum Humidity 68    
Precipitation  
Precipitation 0.00 in - - ()
Sea Level Pressure  
Sea Level Pressure 30.32 in    
Wind  
Wind Speed 12 mph (ESE)    
Max Wind Speed 16 mph    
Max Gust Speed -    
Visibility 10 miles    
Events      
T = Trace of Precipitation, MM = Missing Value Source: NWS Daily Summary

Daily Weather History Graph

Daily Weather History Graph

Search for Another Location

Airport:

Trip Planner

Search our weather history database for the weather conditions in past years. The results will help you decide how hot, cold, wet, or windy it might be!

Date:

Astronomy

Mar. 14, 2013 Rise Set
Actual Time 7:37 AM CDT 7:36 PM CDT
Civil Twilight 7:14 AM CDT 7:59 PM CDT
Nautical Twilight 6:47 AM CDT 8:26 PM CDT
Astronomical Twilight 6:20 AM CDT 8:53 PM CDT
Moon 9:12 AM CDT (3/14) 10:31 PM CDT (3/14)
Length of Visible Light 12h 44m
Length of Day
11h 58m
Waxing Crescent, 9% of the Moon is Illuminated
Mar 14
Waxing Crescent
Mar 19
First Quarter
Mar 27
Full
Apr 2
Last Quarter
Apr 10
New

Hourly Weather History & Observations

Time (CDT) Temp. Dew Point Humidity Pressure Visibility Wind Dir Wind Speed Gust Speed Precip Events Conditions
12:15 AM 66.2 °F 55.4 °F 68% 30.35 in 10.0 mi East 15.0 mph - N/A   Clear
12:35 AM 66.2 °F 55.4 °F 68% 30.35 in 10.0 mi East 15.0 mph - N/A   Clear
12:55 AM 66.2 °F 55.4 °F 68% 30.34 in 10.0 mi East 16.1 mph - N/A   Clear
1:15 AM 66.2 °F 55.4 °F 68% 30.34 in 10.0 mi East 15.0 mph - N/A   Clear
1:35 AM 66.2 °F 55.4 °F 68% 30.34 in 10.0 mi East 15.0 mph - N/A   Clear
1:55 AM 66.2 °F 55.4 °F 68% 30.34 in 10.0 mi East 13.8 mph - N/A   Clear
2:15 AM 66.2 °F 55.4 °F 68% 30.33 in 10.0 mi East 15.0 mph - N/A   Clear
2:35 AM 66.2 °F 55.4 °F 68% 30.32 in 10.0 mi East 13.8 mph - N/A   Clear
2:55 AM 66.2 °F 57.2 °F 73% 30.31 in 10.0 mi East 15.0 mph - N/A   Clear
3:15 AM 66.2 °F 55.4 °F 68% 30.31 in 10.0 mi East 15.0 mph - N/A   Clear
3:35 AM 66.2 °F 55.4 °F 68% 30.31 in 10.0 mi East 15.0 mph - N/A   Clear
3:55 AM 66.2 °F 57.2 °F 73% 30.31 in 10.0 mi East 13.8 mph - N/A   Clear
4:15 AM 66.2 °F 57.2 °F 73% 30.31 in 10.0 mi East 13.8 mph - N/A   Clear
4:35 AM 66.2 °F 57.2 °F 73% 30.30 in 10.0 mi East 13.8 mph - N/A   Clear
4:55 AM 66.2 °F 55.4 °F 68% 30.30 in 10.0 mi East 13.8 mph - N/A   Clear
5:15 AM 66.2 °F 55.4 °F 68% 30.30 in 10.0 mi East 15.0 mph - N/A   Clear
5:35 AM 66.2 °F 57.2 °F 73% 30.31 in 10.0 mi East 15.0 mph - N/A   Clear
5:55 AM 66.2 °F 57.2 °F 73% 30.31 in 10.0 mi East 13.8 mph - N/A   Clear
6:15 AM 66.2 °F 57.2 °F 73% 30.31 in 10.0 mi East 13.8 mph - N/A   Clear
6:35 AM 66.2 °F 57.2 °F 73% 30.31 in 10.0 mi ESE 12.7 mph - N/A   Clear
6:55 AM 66.2 °F 57.2 °F 73% 30.32 in 10.0 mi ESE 13.8 mph - N/A   Clear
7:15 AM 66.2 °F 57.2 °F 73% 30.32 in 10.0 mi ESE 11.5 mph - N/A   Clear
7:35 AM 66.2 °F 57.2 °F 73% 30.33 in 9.0 mi ESE 11.5 mph - N/A   Clear
7:55 AM 66.2 °F 57.2 °F 73% 30.33 in 9.0 mi ESE 11.5 mph - N/A   Clear
8:15 AM 66.2 °F 59.0 °F 78% 30.34 in 9.0 mi ESE 10.4 mph - N/A   Clear
8:35 AM 66.2 °F 59.0 °F 78% 30.35 in 9.0 mi ESE 9.2 mph - N/A   Clear
8:55 AM 66.2 °F 59.0 °F 78% 30.35 in 9.0 mi SE 9.2 mph - N/A   Clear
9:15 AM 66.2 °F 59.0 °F 78% 30.36 in 9.0 mi ESE 8.1 mph - N/A   Clear
9:35 AM 66.2 °F 59.0 °F 78% 30.37 in 10.0 mi ESE 8.1 mph - N/A   Clear
9:55 AM 66.2 °F 59.0 °F 78% 30.38 in 9.0 mi ESE 6.9 mph - N/A   Clear
10:15 AM 66.2 °F 59.0 °F 78% 30.38 in 9.0 mi SE 6.9 mph - N/A   Clear
10:35 AM 66.2 °F 59.0 °F 78% 30.39 in 9.0 mi ESE 6.9 mph - N/A   Clear
10:55 AM 66.2 °F 59.0 °F 78% 30.39 in 9.0 mi ESE 6.9 mph - N/A   Clear
11:15 AM 66.2 °F 60.8 °F 83% 30.39 in 9.0 mi ESE 6.9 mph - N/A   Partly Cloudy
11:35 AM 66.2 °F 60.8 °F 83% 30.40 in 9.0 mi ESE 4.6 mph - N/A   Clear
11:55 AM 66.2 °F 60.8 °F 83% 30.39 in 9.0 mi ESE 5.8 mph - N/A   Clear
12:35 PM 68.0 °F 60.8 °F 78% 30.38 in 9.0 mi ESE 6.9 mph - N/A   Clear
12:55 PM 68.0 °F 60.8 °F 78% 30.38 in 9.0 mi ESE 6.9 mph - N/A   Clear
1:15 PM 68.0 °F 60.8 °F 78% 30.37 in 10.0 mi ESE 6.9 mph - N/A   Clear
1:35 PM 68.0 °F 60.8 °F 78% 30.36 in 9.0 mi East 6.9 mph - N/A   Clear
1:55 PM 68.0 °F 60.8 °F 78% 30.35 in 9.0 mi ESE 6.9 mph - N/A   Clear
2:15 PM 68.0 °F 60.8 °F 78% 30.35 in 9.0 mi East 6.9 mph - N/A   Clear
2:35 PM 68.0 °F 60.8 °F 78% 30.34 in 9.0 mi East 6.9 mph - N/A   Clear
2:55 PM 68.0 °F 60.8 °F 78% 30.33 in 10.0 mi East 6.9 mph - N/A   Clear
3:15 PM 68.0 °F 60.8 °F 78% 30.32 in 9.0 mi East 6.9 mph - N/A   Clear
3:35 PM 68.0 °F 60.8 °F 78% 30.31 in 9.0 mi East 8.1 mph - N/A   Clear
3:55 PM 68.0 °F 60.8 °F 78% 30.30 in 9.0 mi East 8.1 mph - N/A   Clear
4:15 PM 68.0 °F 60.8 °F 78% 30.30 in 10.0 mi East 8.1 mph - N/A   Clear
4:35 PM 68.0 °F 60.8 °F 78% 30.29 in 9.0 mi East 8.1 mph - N/A   Clear
4:55 PM 68.0 °F 60.8 °F 78% 30.29 in 10.0 mi East 8.1 mph - N/A   Clear
5:15 PM 68.0 °F 60.8 °F 78% 30.29 in 9.0 mi East 9.2 mph - N/A   Clear
5:35 PM 68.0 °F 59.0 °F 73% 30.28 in 10.0 mi East 9.2 mph - N/A   Clear
5:55 PM 68.0 °F 59.0 °F 73% 30.28 in 9.0 mi East 9.2 mph - N/A   Clear
6:15 PM 68.0 °F 59.0 °F 73% 30.28 in 10.0 mi East 10.4 mph - N/A   Clear
6:35 PM 68.0 °F 59.0 °F 73% 30.28 in 10.0 mi East 11.5 mph - N/A   Clear
6:55 PM 68.0 °F 59.0 °F 73% 30.28 in 10.0 mi East 12.7 mph - N/A   Clear
7:15 PM 68.0 °F 59.0 °F 73% 30.28 in 9.0 mi East 12.7 mph - N/A   Clear
7:35 PM 68.0 °F 57.2 °F 68% 30.28 in 9.0 mi East 13.8 mph - N/A   Clear
7:55 PM 68.0 °F 59.0 °F 73% 30.28 in 9.0 mi East 12.7 mph - N/A   Clear
8:15 PM 68.0 °F 59.0 °F 73% 30.28 in 10.0 mi East 13.8 mph - N/A   Unknown
8:35 PM 66.2 °F 59.0 °F 78% 30.28 in 10.0 mi East 12.7 mph - N/A   Unknown
8:55 PM 66.2 °F 57.2 °F 73% 30.28 in 10.0 mi East 13.8 mph - N/A   Unknown
9:15 PM 68.0 °F 57.2 °F 68% 30.28 in 10.0 mi East 13.8 mph - N/A   Unknown
9:35 PM 68.0 °F 57.2 °F 68% 30.29 in 10.0 mi East 13.8 mph - N/A   Clear
9:55 PM 66.2 °F 57.2 °F 73% 30.29 in 10.0 mi East 13.8 mph - N/A   Clear
10:15 PM 66.2 °F 57.2 °F 73% 30.29 in 10.0 mi East 13.8 mph - N/A   Clear
10:35 PM 66.2 °F 57.2 °F 73% 30.28 in 10.0 mi East 13.8 mph - N/A   Unknown
10:55 PM 66.2 °F 59.0 °F 78% 30.28 in 10.0 mi East 12.7 mph - N/A   Unknown
11:15 PM 66.2 °F 59.0 °F 78% 30.29 in 10.0 mi ESE 12.7 mph - N/A   Unknown
11:35 PM 66.2 °F 59.0 °F 78% 30.29 in 10.0 mi ESE 11.5 mph - N/A   Unknown
11:55 PM 66.2 °F 59.0 °F 78% 30.29 in 10.0 mi SE 11.5 mph - N/A   Unknown